TimeCST,TemperatureF,Dew PointF,Humidity,Sea Level PressureIn,VisibilityMPH,Wind Direction,Wind SpeedMPH,Gust SpeedMPH,PrecipitationIn,Events,Conditions,WindDirDegrees,DateUTC
12:53 AM,57.0,53.1,87,29.88,10.0,South,5.8,-,N/A,,Overcast,190,2013-12-03 06:53:00
1:53 AM,54.0,52.0,93,29.86,10.0,South,5.8,-,0.00,,Partly Cloudy,170,2013-12-03 07:53:00
2:53 AM,57.0,54.0,89,29.86,10.0,South,6.9,-,N/A,,Overcast,180,2013-12-03 08:53:00
3:53 AM,55.9,54.0,93,29.86,10.0,South,6.9,-,N/A,,Mostly Cloudy,170,2013-12-03 09:53:00
4:53 AM,55.9,54.0,93,29.87,10.0,South,8.1,-,N/A,,Mostly Cloudy,170,2013-12-03 10:53:00
5:53 AM,55.0,53.1,93,29.87,10.0,South,8.1,-,N/A,,Clear,170,2013-12-03 11:53:00
6:53 AM,57.0,55.0,93,29.89,10.0,South,5.8,-,N/A,,Mostly Cloudy,170,2013-12-03 12:53:00
7:53 AM,60.1,55.9,86,29.90,10.0,South,6.9,-,N/A,,Overcast,170,2013-12-03 13:53:00
8:23 AM,60.8,57.2,88,29.92,2.0,SSW,5.8,-,0.03,Rain,Rain,200,2013-12-03 14:23:00
8:36 AM,59.0,57.2,94,29.93,3.0,SSW,5.8,-,0.05,Rain,Heavy Rain,200,2013-12-03 14:36:00
8:49 AM,59.0,57.2,94,29.94,1.0,NW,6.9,-,0.19,Rain,Heavy Rain,310,2013-12-03 14:49:00
8:53 AM,59.0,57.0,93,29.94,1.2,WNW,5.8,-,0.23,Rain,Heavy Rain,290,2013-12-03 14:53:00
9:12 AM,59.0,57.2,94,29.95,0.8,NW,8.1,-,0.16,Rain,Heavy Rain,320,2013-12-03 15:12:00
9:19 AM,57.2,57.2,100,29.95,1.5,NW,3.5,-,0.17,Rain,Rain,320,2013-12-03 15:19:00
9:25 AM,59.0,57.2,94,29.95,2.0,Calm,Calm,-,0.19,Rain,Rain,0,2013-12-03 15:25:00
9:29 AM,59.0,57.2,94,29.95,3.0,Calm,Calm,-,0.19,Rain,Light Rain,0,2013-12-03 15:29:00
9:53 AM,60.1,57.9,93,29.94,3.0,SSE,3.5,-,0.19,Rain,Light Rain,150,2013-12-03 15:53:00
10:53 AM,66.0,61.0,84,29.92,10.0,South,9.2,-,N/A,,Scattered Clouds,180,2013-12-03 16:53:00
11:29 AM,69.8,60.8,73,29.91,10.0,South,9.2,-,N/A,,Overcast,190,2013-12-03 17:29:00
11:53 AM,70.0,60.1,71,29.89,10.0,South,10.4,-,N/A,,Partly Cloudy,190,2013-12-03 17:53:00
12:53 PM,72.0,61.0,68,29.86,10.0,South,10.4,-,N/A,,Scattered Clouds,170,2013-12-03 18:53:00
1:28 PM,73.4,60.8,65,29.86,10.0,South,13.8,19.6,N/A,,Mostly Cloudy,190,2013-12-03 19:28:00
1:39 PM,73.4,60.8,65,29.86,10.0,SSW,16.1,21.9,N/A,,Partly Cloudy,200,2013-12-03 19:39:00
1:53 PM,73.0,61.0,66,29.84,10.0,SSW,13.8,-,N/A,,Partly Cloudy,200,2013-12-03 19:53:00
2:02 PM,73.4,60.8,65,29.85,10.0,South,17.3,24.2,N/A,,Mostly Cloudy,190,2013-12-03 20:02:00
2:53 PM,73.0,62.1,68,29.83,10.0,SSW,15.0,-,N/A,,Scattered Clouds,210,2013-12-03 20:53:00
3:53 PM,72.0,61.0,68,29.84,10.0,South,13.8,-,N/A,,Scattered Clouds,190,2013-12-03 21:53:00
4:53 PM,69.1,61.0,75,29.86,10.0,South,11.5,20.7,N/A,,Mostly Cloudy,190,2013-12-03 22:53:00
5:53 PM,68.0,62.1,81,29.88,10.0,South,8.1,-,N/A,,Overcast,190,2013-12-03 23:53:00
6:53 PM,66.9,63.0,87,29.90,10.0,South,8.1,-,N/A,,Overcast,180,2013-12-04 00:53:00
7:53 PM,64.9,62.1,90,29.90,10.0,South,8.1,-,N/A,,Partly Cloudy,190,2013-12-04 01:53:00
8:53 PM,62.1,61.0,96,29.92,10.0,SSE,5.8,-,N/A,,Clear,160,2013-12-04 02:53:00
9:53 PM,61.0,60.1,97,29.93,8.0,South,5.8,-,N/A,,Clear,170,2013-12-04 03:53:00
10:53 PM,62.1,61.0,96,29.93,8.0,SSE,8.1,-,N/A,,Clear,160,2013-12-04 04:53:00
11:53 PM,62.1,62.1,100,29.93,7.0,South,5.8,-,N/A,,Mostly Cloudy,180,2013-12-04 05:53:00